Location: Augirein
(42.9320°N, 0.9181°E)
Time: 13:17:22
(UTC+00:00)

IRS-1D - Pass Details

Date: 20 June 2021
Orbit: 739 x 817 km, 98.6° (Epoch: 01 August)

Event Time Altitude Azimuth Distance (km) Brightness Sun altitude
Rises 02:00:27 0° 18° (NNE) 3,275 8.3 -17.9°
Reaches altitude 10° 02:02:51 10° 23° (NNE) 2,330 7.3 -17.7°
Maximum altitude 02:07:53 54° 100° (E) 922 4.0 -17.2°
Enters shadow 02:11:12 20° 172° (S) 1,684 4.8 -16.9°
